Total_Precipitation_Accumulation
0.00 0.00 0.05 0.05 0.06 0.07 0.08 0.11 0.11 0.12 0.12 0.12 0.12 0.11 0.11 0.10 0.08 0.09 0.12 0.10 0.07 0.07 0.07 0.09 0.11 0.14 0.15 0.19 0.23 0.28 0.38 0.45 0.35 0.27 0.29 0.27 0.21 0.25 0.40 0.38 0.21 0.25 0.19
0.00 0.00 0.03 0.04 0.04 0.05 0.07 0.11 0.10 0.11 0.11 0.10 0.11 0.11 0.13 0.11 0.11 0.11 0.08 0.06 0.04 0.06 0.07 0.07 0.11 0.13 0.14 0.20 0.25 0.31 0.36 0.39 0.36 0.34 0.39 0.36 0.29 0.36 0.44 0.37 0.25 0.27 0.21
0.00 0.00 0.02 0.03 0.03 0.04 0.07 0.10 0.12 0.12 0.09 0.12 0.14 0.15 0.17 0.13 0.10 0.06 0.04 0.04 0.04 0.06 0.10 0.10 0.11 0.11 0.16 0.19 0.25 0.33 0.34 0.39 0.41 0.39 0.41 0.46 0.34 0.30 0.35 0.36 0.24 0.23 0.20
0.00 0.00 0.01 0.02 0.03 0.05 0.09 0.14 0.15 0.14 0.11 0.13 0.13 0.14 0.14 0.13 0.08 0.09 0.10 0.05 0.04 0.04 0.05 0.07 0.07 0.10 0.18 0.22 0.26 0.28 0.29 0.37 0.43 0.32 0.29 0.40 0.36 0.29 0.35 0.45 0.34 0.27 0.24
0.00 0.01 0.02 0.06 0.05 0.07 0.14 0.26 0.26 0.21 0.16 0.09 0.09 0.08 0.09 0.08 0.08 0.15 0.07 0.03 0.03 0.03 0.04 0.06 0.08 0.09 0.17 0.24 0.24 0.23 0.28 0.40 0.41 0.26 0.26 0.33 0.42 0.40 0.40 0.49 0.45 0.32 0.23
0.00 0.02 0.08 0.18 0.14 0.14 0.20 0.34 0.30 0.24 0.22 0.10 0.08 0.07 0.07 0.05 0.08 0.10 0.07 0.06 0.03 0.02 0.03 0.05 0.08 0.10 0.16 0.22 0.24 0.28 0.37 0.39 0.28 0.29 0.31 0.34 0.41 0.43 0.38 0.42 0.36 0.27 0.21
0.01 0.02 0.10 0.26 0.22 0.18 0.21 0.33 0.29 0.25 0.26 0.14 0.08 0.08 0.06 0.06 0.08 0.09 0.12 0.07 0.02 0.01 0.02 0.02 0.04 0.08 0.12 0.18 0.22 0.30 0.34 0.25 0.25 0.28 0.25 0.36 0.40 0.36 0.28 0.29 0.32 0.30 0.29
0.02 0.02 0.06 0.19 0.18 0.17 0.24 0.33 0.36 0.29 0.24 0.13 0.09 0.09 0.07 0.08 0.09 0.11 0.11 0.05 0.02 0.01 0.02 0.02 0.02 0.04 0.08 0.13 0.18 0.23 0.24 0.19 0.14 0.15 0.18 0.30 0.36 0.32 0.21 0.20 0.25 0.26 0.34
0.05 0.04 0.05 0.06 0.07 0.11 0.23 0.28 0.44 0.47 0.31 0.16 0.11 0.09 0.09 0.08 0.08 0.09 0.06 0.03 0.01 0.01 0.02 0.01 0.01 0.02 0.05 0.09 0.12 0.14 0.16 0.15 0.12 0.11 0.11 0.19 0.25 0.20 0.17 0.16 0.19 0.26 0.37
0.05 0.02 0.02 0.02 0.04 0.10 0.16 0.29 0.53 0.66 0.51 0.26 0.17 0.12 0.11 0.08 0.07 0.06 0.03 0.01 0.01 0.00 0.00 0.00 0.00 0.01 0.02 0.05 0.07 0.07 0.09 0.10 0.11 0.08 0.06 0.09 0.13 0.09 0.11 0.12 0.12 0.19 0.29
0.08 0.03 0.02 0.02 0.03 0.08 0.16 0.26 0.48 0.69 0.65 0.35 0.22 0.18 0.12 0.08 0.11 0.07 0.02 0.01 0.00 0.00 0.00 0.00 0.00 0.00 0.01 0.03 0.05 0.05 0.05 0.05 0.06 0.04 0.02 0.05 0.06 0.03 0.04 0.04 0.05 0.08 0.15
0.13 0.07 0.04 0.03 0.03 0.04 0.08 0.24 0.40 0.46 0.49 0.32 0.29 0.17 0.17 0.22 0.15 0.05 0.02 0.01 0.01 0.00 0.00 0.01 0.00 0.00 0.00 0.00 0.01 0.01 0.01 0.01 0.01 0.01 0.01 0.01 0.01 0.01 0.01 0.02 0.01 0.02 0.04
0.23 0.16 0.09 0.08 0.05 0.05 0.10 0.19 0.30 0.46 0.49 0.50 0.40 0.23 0.22 0.20 0.08 0.01 0.01 0.01 0.01 0.01 0.01 0.01 0.01 0.00 0.00 0.00 0.00 0.00 0.00 0.00 0.00 0.00 0.01 0.01 0.01 0.01 0.01 0.02 0.01 0.01 0.01
0.38 0.36 0.25 0.16 0.13 0.09 0.10 0.18 0.26 0.36 0.47 0.48 0.33 0.16 0.16 0.16 0.09 0.02 0.01 0.01 0.01 0.02 0.01 0.00 0.00 0.00 0.00 0.00 0.01 0.01 0.00 0.00 0.00 0.01 0.03 0.06 0.06 0.04 0.04 0.04 0.03 0.01 0.01
0.46 0.50 0.44 0.31 0.22 0.21 0.20 0.20 0.19 0.33 0.41 0.35 0.32 0.22 0.19 0.16 0.11 0.06 0.01 0.01 0.01 0.01 0.01 0.00 0.00 0.00 0.00 0.00 0.00 0.00 0.00 0.00 0.01 0.03 0.06 0.12 0.15 0.12 0.10 0.11 0.08 0.03 0.03
0.46 0.47 0.47 0.42 0.38 0.34 0.30 0.28 0.29 0.29 0.36 0.34 0.25 0.18 0.22 0.21 0.14 0.11 0.05 0.03 0.02 0.01 0.01 0.00 0.00 0.00 0.00 0.00 0.00 0.00 0.00 0.00 0.00 0.01 0.02 0.07 0.16 0.17 0.19 0.24 0.20 0.11 0.09
0.42 0.42 0.45 0.51 0.54 0.52 0.50 0.49 0.44 0.40 0.36 0.34 0.34 0.32 0.31 0.27 0.22 0.19 0.10 0.06 0.05 0.04 0.04 0.03 0.01 0.00 0.00 0.01 0.00 0.00 0.00 0.00 0.00 0.00 0.00 0.02 0.08 0.18 0.27 0.38 0.38 0.27 0.18
0.34 0.32 0.37 0.43 0.50 0.56 0.60 0.63 0.59 0.60 0.56 0.49 0.47 0.38 0.34 0.34 0.32 0.28 0.20 0.16 0.17 0.13 0.12 0.10 0.05 0.02 0.01 0.01 0.00 0.00 0.00 0.00 0.00 0.00 0.00 0.01 0.03 0.09 0.19 0.30 0.43 0.54 0.38
0.27 0.25 0.28 0.33 0.40 0.48 0.56 0.63 0.64 0.66 0.79 0.83 0.65 0.45 0.48 0.51 0.45 0.45 0.46 0.44 0.40 0.33 0.20 0.13 0.09 0.06 0.04 0.03 0.01 0.00 0.00 0.00 0.00 0.00 0.00 0.00 0.01 0.03 0.07 0.10 0.20 0.29 0.29
0.24 0.23 0.25 0.31 0.32 0.35 0.46 0.61 0.68 0.65 0.74 0.93 0.91 0.82 0.81 0.83 0.78 0.76 0.73 0.66 0.61 0.54 0.38 0.28 0.25 0.17 0.12 0.07 0.02 0.01 0.00 0.00 0.00 0.00 0.00 0.00 0.00 0.01 0.01 0.02 0.07 0.05 0.09
0.17 0.19 0.23 0.29 0.32 0.33 0.40 0.51 0.58 0.65 0.82 1.01 1.05 1.08 1.12 1.11 1.07 1.09 1.09 1.00 0.86 0.72 0.65 0.60 0.60 0.45 0.30 0.15 0.09 0.06 0.03 0.01 0.00 0.00 0.00 0.00 0.00 0.01 0.00 0.01 0.03 0.04 0.04
0.10 0.12 0.17 0.25 0.34 0.39 0.44 0.58 0.73 0.94 1.05 1.17 1.31 1.29 1.27 1.24 1.20 1.20 1.31 1.34 1.18 1.06 1.05 0.91 0.85 0.83 0.64 0.38 0.32 0.31 0.19 0.12 0.04 0.01 0.01 0.00 0.00 0.01 0.01 0.01 0.01 0.01 0.02
0.07 0.08 0.14 0.28 0.47 0.65 0.77 1.00 1.27 1.52 1.58 1.49 1.47 1.50 1.48 1.47 1.43 1.32 1.34 1.42 1.32 1.20 1.14 1.17 1.18 1.22 1.04 0.81 0.60 0.54 0.41 0.33 0.27 0.07 0.01 0.01 0.01 0.01 0.01 0.01 0.02 0.02 0.01
0.09 0.17 0.31 0.54 0.83 1.08 1.23 1.42 1.64 1.74 1.78 1.71 1.70 1.67 1.62 1.52 1.39 1.29 1.35 1.42 1.45 1.44 1.41 1.42 1.29 1.34 1.33 1.10 0.96 0.73 0.56 0.46 0.41 0.30 0.11 0.03 0.03 0.01 0.01 0.01 0.01 0.01 0.01
0.35 0.53 0.79 1.04 1.28 1.43 1.47 1.55 1.75 1.90 2.04 2.05 1.94 1.80 1.65 1.54 1.44 1.30 1.27 1.28 1.26 1.27 1.32 1.36 1.25 1.29 1.31 1.31 1.25 1.10 0.89 0.75 0.46 0.39 0.34 0.16 0.05 0.02 0.01 0.01 0.01 0.02 0.01
0.76 0.93 1.14 1.28 1.41 1.40 1.39 1.43 1.54 1.72 1.87 1.89 1.90 1.88 1.74 1.55 1.39 1.26 1.16 1.16 1.16 1.07 1.11 1.16 1.15 1.23 1.23 1.23 1.24 1.13 1.03 0.98 0.88 0.67 0.51 0.36 0.21 0.07 0.02 0.01 0.01 0.02 0.03